IRIDIUM 33 DEB, 46972

Orbit data source: Space-Track

IRIDIUM 33 DEB, 46972 is space debris in LEO originally from a launch on Sun, 14 Sep 1997 UTC launched from the Tyuratam Missile And Space Complex (TTMTR). The debris from Iridium 33, an American commercial communications satellite, has been tracked extensively since its accidental collision with the defunct Russian satellite Cosmos 2251 in 2009. This event, occurring at high speed in low Earth orbit (LEO), generated thousands of pieces of space debris, significantly increasing the risk of further collisions. The Iridium 33 debris cloud has impacted space traffic management and orbital debris mitigation strategies, making it a subject of ongoing study in space situational awareness.

Loading next visibility...
Identifier
46972, 1997-051ACE
Orbit
LEO
Country
Flag of USUS
Related business
Manufacturer
Unknown
Mission
Spacecraft
Bus & Motor
Unknown
Mass
Unknown
Launch date (UTC)
1997-09-14 (29 years ago)
Launch vehicle
Unknown
Launch site
Tyuratam Missile And Space Complex (TTMTR)
Object type
Payload
Rocket body
Debris
Shape & HBR
Unknown shape, 0.1 m
Radar Cross Section
Small (<0.1 m²)

Expand to show TLE details & history
Last TLE update: 16 hours ago

TLE from 16 hours ago
0 IRIDIUM 33 DEB
1 46972U 97051ACE 26208.55308166  .00001737  00000-0  42837-3 0  9997
2 46972  86.3887 301.6993 0011453  73.6435 347.9444 14.51611400648627
Epoch: 2026-07-27T13:16Z
TLE epoch observation values (Epoch: 2026-07-27T13:16:26.255Z)
Latitude
61.44433°
Longitude
163.97862°
Altitude
723.038 km
Speed
7.504 km/s
True Right ascension
20h 33m 17s
True Declination
61° 17' 56"
Sunlit
Object was in daylight at epoch
Visualization orbit readout
Latitude
Unknown
Longitude
Unknown
Altitude
Unknown
Speed
Unknown
Apparent Right ascension
Unknown
Apparent Declination
Unknown
Sunlit
N/A
Visualization observer readout
Local Sidereal Time
18:15:38
Azimuth
Unknown
Elevation
Unknown
Doppler factor
Unknown
Orbital elements
Apogee altitude
725.457 km
Perigee altitude
709.204 km
Semi-major axis
7,095.467 km
Eccentricity
0.00115
Inclination
86.3887°
RAAN
301.6993°
Arg. of periapsis
73.6435°
True anomaly
347.91695°
Mean anomaly
347.9444°
Eccentric anomaly
347.93068°
Mean motion
3.63138 °/min
Orbital period
99.14 mins
BSTAR
0.00042837
Loading maneuver chart data...
Computing Atmospheric mass density...

Documentation

Showing up to 5 results
|